Brookhaven, MS

5:46 AM CDT on June 25, 2017 (GMT -0500)
Brookhaven

Weather History for K1R7 - May, 2014

Change the Weather History Date:

Friday, May 16, 2014

  Actual Average (KMCB) Record (KMCB)
Temperature  
Mean Temperature 62 °F -  
Max Temperature 77 °F 83 °F 92 °F (1963)
Min Temperature 48 °F 59 °F 45 °F (1973)
Degree Days  
Heating Degree Days 2    
Growing Degree Days 12 (Base 50)    
Moisture  
Dew Point 54 °F    
Average Humidity 76    
Maximum Humidity 100    
Minimum Humidity 47    
Precipitation  
Precipitation 0.00 in - - ()
Sea Level Pressure  
Sea Level Pressure 30.15 in    
Wind  
Wind Speed 3 mph (West)    
Max Wind Speed 14 mph    
Max Gust Speed 20 mph    
Averages and records for this station are not official NWS values.
T = Trace of Precipitation, MM = Missing Value Source: NWS Daily Summary

Daily Weather History Graph

Daily Weather History Graph

Search for Another Location

Airport or City:

Trip Planner

Search our weather history database for the weather conditions in past years. The results will help you decide how hot, cold, wet, or windy it might be!

Date:

Astronomy

May. 16, 2014 Rise Set
Actual Time 6:04 AM CDT 7:51 PM CDT
Civil Twilight 5:37 AM CDT 8:18 PM CDT
Nautical Twilight 5:05 AM CDT 8:51 PM CDT
Astronomical Twilight 4:31 AM CDT 9:25 PM CDT
Moon 9:59 PM CDT (5/16) 7:46 AM CDT (5/16)
Length of Visible Light 14h 41m
Length of Day
13h 47m
Waning Gibbous, 95% of the Moon is Illuminated
May 16
Waning Gibbous
May 21
Last Quarter
May 28
New
Jun 5
First Quarter
Jun 12
Full

Hourly Weather History & Observations

Time (CDT) Temp. Dew Point Humidity Pressure Visibility Wind Dir Wind Speed Gust Speed Precip Events Conditions
12:15 AM 50.0 °F 50.0 °F 100% 30.19 in - Calm Calm - N/A   Clear
12:35 AM 48.2 °F 48.2 °F 100% 30.19 in - Calm Calm - N/A   Clear
12:55 AM 48.2 °F 48.2 °F 100% 30.19 in - Calm Calm - N/A   Clear
1:15 AM 48.2 °F 48.2 °F 100% 30.19 in - Calm Calm - N/A   Clear
1:35 AM 48.2 °F 48.2 °F 100% 30.19 in - Calm Calm - N/A   Clear
1:55 AM 48.2 °F 48.2 °F 100% 30.18 in - Calm Calm - N/A   Clear
2:15 AM 48.2 °F 48.2 °F 100% 30.17 in - Calm Calm - N/A   Clear
2:35 AM 48.2 °F 48.2 °F 100% 30.16 in - Calm Calm - N/A   Clear
2:55 AM 48.2 °F 48.2 °F 100% 30.18 in - Calm Calm - N/A   Clear
3:15 AM 51.8 °F 48.2 °F 88% 30.19 in - WNW 3.5 mph - N/A   Scattered Clouds
3:35 AM 51.8 °F 48.2 °F 88% 30.19 in - Calm Calm - N/A   Mostly Cloudy
3:55 AM 53.6 °F 48.2 °F 82% 30.19 in - WNW 3.5 mph - N/A   Mostly Cloudy
4:15 AM 53.6 °F 48.2 °F 82% 30.19 in - NW 5.8 mph - N/A   Mostly Cloudy
4:35 AM 53.6 °F 48.2 °F 82% 30.19 in - Calm Calm - N/A   Clear
4:55 AM 53.6 °F 48.2 °F 82% 30.20 in - Calm Calm - N/A   Partly Cloudy
5:15 AM 51.8 °F 48.2 °F 88% 30.18 in - Calm Calm - N/A   Clear
5:35 AM 51.8 °F 50.0 °F 94% 30.18 in - Calm Calm - N/A   Mostly Cloudy
5:55 AM 51.8 °F 51.8 °F 100% 30.19 in - Calm Calm - N/A   Mostly Cloudy
6:15 AM 51.8 °F 51.8 °F 100% 30.19 in - Calm Calm - N/A   Scattered Clouds
6:35 AM 51.8 °F 51.8 °F 100% 30.20 in - Calm Calm - N/A   Scattered Clouds
6:55 AM 51.8 °F 51.8 °F 100% 30.20 in - Calm Calm - N/A   Scattered Clouds
7:15 AM 53.6 °F 51.8 °F 94% 30.20 in - Calm Calm - N/A   Partly Cloudy
7:35 AM 53.6 °F 51.8 °F 94% 30.20 in - Calm Calm - N/A   Clear
7:55 AM 55.4 °F 53.6 °F 94% 30.20 in - Calm Calm - N/A   Clear
8:15 AM 59.0 °F 53.6 °F 82% 30.20 in - West 3.5 mph - N/A   Clear
8:35 AM 60.8 °F 53.6 °F 77% 30.20 in - Calm Calm - N/A   Clear
8:55 AM 62.6 °F 53.6 °F 72% 30.21 in - WNW 4.6 mph - N/A   Clear
9:15 AM 64.4 °F 51.8 °F 64% 30.21 in - WNW 3.5 mph - N/A   Clear
9:55 AM 66.2 °F 51.8 °F 60% 30.22 in - WSW 6.9 mph - N/A   Clear
10:15 AM 66.2 °F 51.8 °F 60% 30.22 in - WSW 6.9 mph - N/A   Clear
10:35 AM 66.2 °F 51.8 °F 60% 30.21 in - West 3.5 mph - N/A   Clear
10:55 AM 68.0 °F 51.8 °F 56% 30.21 in - North 3.5 mph - N/A   Clear
11:15 AM 69.8 °F 51.8 °F 53% 30.21 in - WNW 3.5 mph - N/A   Clear
11:35 AM 69.8 °F 53.6 °F 56% 30.19 in - SW 6.9 mph - N/A   Clear
11:55 AM 71.6 °F 53.6 °F 53% 30.19 in - West 8.1 mph - N/A   Clear
12:15 PM 71.6 °F 53.6 °F 53% 30.19 in - West 8.1 mph - N/A   Clear
12:35 PM 71.6 °F 53.6 °F 53% 30.18 in - WSW 11.5 mph 16.1 mph N/A   Clear
12:55 PM 71.6 °F 53.6 °F 53% 30.17 in - West 9.2 mph - N/A   Scattered Clouds
1:35 PM 73.4 °F 55.4 °F 53% 30.15 in - WSW 9.2 mph 16.1 mph N/A   Scattered Clouds
1:55 PM 75.2 °F 55.4 °F 50% 30.15 in - West 12.7 mph 16.1 mph N/A   Scattered Clouds
2:15 PM 75.2 °F 55.4 °F 50% 30.14 in - SW 10.4 mph - N/A   Scattered Clouds
2:35 PM 75.2 °F 55.4 °F 50% 30.14 in - West 11.5 mph - N/A   Mostly Cloudy
3:15 PM 73.4 °F 55.4 °F 53% 30.13 in - WSW 13.8 mph - N/A   Scattered Clouds
3:35 PM 75.2 °F 55.4 °F 50% 30.12 in - West 10.4 mph 19.6 mph N/A   Scattered Clouds
3:55 PM 77.0 °F 55.4 °F 47% 30.11 in - West 13.8 mph 19.6 mph N/A   Partly Cloudy
4:15 PM 75.2 °F 55.4 °F 50% 30.11 in - West 11.5 mph 16.1 mph N/A   Clear
4:35 PM 75.2 °F 55.4 °F 50% 30.10 in - WSW 10.4 mph - N/A   Partly Cloudy
4:55 PM 75.2 °F 55.4 °F 50% 30.10 in - WSW 9.2 mph - N/A   Partly Cloudy
5:15 PM 77.0 °F 55.4 °F 47% 30.09 in - West 8.1 mph - N/A   Scattered Clouds
5:35 PM 77.0 °F 55.4 °F 47% 30.09 in - SW 8.1 mph - N/A   Partly Cloudy
5:55 PM 75.2 °F 55.4 °F 50% 30.09 in - SW 8.1 mph - N/A   Clear
6:15 PM 75.2 °F 55.4 °F 50% 30.08 in - WSW 6.9 mph - N/A   Clear
6:35 PM 75.2 °F 55.4 °F 50% 30.08 in - WSW 8.1 mph - N/A   Clear
6:55 PM 75.2 °F 57.2 °F 53% 30.09 in - WSW 4.6 mph - N/A   Clear
7:15 PM 73.4 °F 57.2 °F 57% 30.08 in - WSW 3.5 mph - N/A   Clear
7:35 PM 71.6 °F 59.0 °F 64% 30.09 in - Calm Calm - N/A   Clear
7:55 PM 66.2 °F 60.8 °F 83% 30.09 in - Calm Calm - N/A   Clear
8:15 PM 64.4 °F 60.8 °F 88% 30.10 in - Calm Calm - N/A   Clear
8:35 PM 64.4 °F 60.8 °F 88% 30.10 in - Calm Calm - N/A   Scattered Clouds
8:55 PM 62.6 °F 60.8 °F 94% 30.10 in - Calm Calm - N/A   Partly Cloudy
9:15 PM 62.6 °F 60.8 °F 94% 30.10 in - North - - N/A   Partly Cloudy
9:35 PM 62.6 °F 60.8 °F 94% 30.11 in - Calm Calm - N/A   Partly Cloudy
9:55 PM 60.8 °F 60.8 °F 100% 30.11 in - Calm Calm - N/A   Clear
10:15 PM 60.8 °F 59.0 °F 94% 30.11 in - Calm Calm - N/A   Clear
10:35 PM 60.8 °F 59.0 °F 94% 30.11 in - Calm Calm - N/A   Scattered Clouds
10:55 PM 60.8 °F 60.8 °F 100% 30.11 in - Calm Calm - N/A   Mostly Cloudy
11:15 PM 60.8 °F 59.0 °F 94% 30.11 in - Calm Calm - N/A   Mostly Cloudy
11:35 PM 60.8 °F 59.0 °F 94% 30.11 in - Calm Calm - N/A   Clear
11:55 PM 60.8 °F 57.2 °F 88% 30.11 in - Calm Calm - N/A   Clear